Regional Weather Roundup
Issued by NWS

Home | Current Version | Previous Version | Text Only | Print | Product List | Glossary On
Versions: 1 2 3 4 5 6 7 8 9 10 11 12 13 14 15 16 17 18 19 20 21 22 23 24 25 26 27 28 29 30 31 32 33 34 35 36 37 38 39 40 41 42 43 44 45 46 47 48 49 50
344
ASUS44 KLIX 302110
RWRLA
LOUISIANA WEATHER ROUNDUP
NATIONAL WEATHER SERVICE NEW ORLEANS LA
400 PM CDT TUE SEP 30 2014

NOTE: "FAIR" INDICATES FEW OR NO CLOUDS BELOW 12,000 FEET WITH NO
      SIGNIFICANT WEATHER AND/OR OBSTRUCTIONS TO VISIBILITY.
      SKY/WX - SKY CONDITION AND SIGNIFICANT WEATHER.
      TMP - AIR TEMPERATURE.    DP   - DEWPOINT TEMPERATURE.
      RH  - RELATIVE HUMIDITY.  PRES - PRESSURE.
      HX  - HEAT INDEX.         WCI  - WIND CHILL INDEX.

*  THESE STATIONS ARE NOT NWS OR FAA STATIONS AND ARE NOT UNDER
   NWS QUALITY CONTROL.

LAZ040-048-061>063-065-066-069-302200-
SOUTHEAST LOUISIANA

CITY           SKY/WX    TMP DP  RH WIND       PRES   REMARKS
N.O. AUDUBON   NOT AVBL
N.O. INTL ARPT MOSUNNY   88  69  53 NE14      29.83F
N.O. LAKEFRONT MOSUNNY   85  70  60 E9        29.85F
N.O. DOWNTOWN* FAIR      88  70  55 E5        29.85S
SLIDELL        PTSUNNY   84  70  62 SE10      29.84F
BATON ROUGE    PTSUNNY   87  70  56 NE6       29.83F
BOOTHVILLE     PTSUNNY   82  74  76 E10       29.86S
BELLE CHASSE   MOSUNNY   84  71  65 SE8       29.84F
BOGALUSA*      MOCLDY    88  67  49 NE8       29.86S
GALLIANO*      NOT AVBL
NEW ROADS*     FAIR      88  69  53 CALM      29.83F
GONZALES*      FAIR      88  72  58 E5        29.82F
HAMMOND*       MOSUNNY   88  68  51 S6        29.85S
HOUMA*         PTSUNNY  N/A N/A N/A SE5       29.83F
PORT FOURCHON* CLEAR     84  73  70 E7        29.88S

$$

LAZ041-044-053-054-302200-
SOUTHWEST LOUISIANA

CITY           SKY/WX    TMP DP  RH WIND       PRES   REMARKS
LAKE CHARLES   PTSUNNY   88  72  58 S8        29.81F
LAFAYETTE      SUNNY     89  71  55 VRB5      29.82F HX  95
PATTERSON      MOSUNNY   90  73  58 S6        29.85  HX  98
SALT POINT       N/A     88  74  63 CALM      29.83S HX  96
NEW IBERIA     MOSUNNY   89  72  56 SE7       29.83F HX  96
CHENAULT AIRPK MOSUNNY   88  72  58 S9        29.82F

$$

LAZ027-028-302200-
CENTRAL LOUISIANA

CITY           SKY/WX    TMP DP  RH WIND       PRES   REMARKS
FORT POLK      PTSUNNY   86  71  59 VRB5      29.82F
ALEXANDRIA INT MOSUNNY   90  66  45 E6        29.81F
ALEXANDRIA     MOSUNNY   90  69  50 E6        29.83F

$$

LAZ001-002-302200-
NORTHWEST LOUISIANA

CITY           SKY/WX    TMP DP  RH WIND       PRES   REMARKS
SHREVEPORT     MOSUNNY   91  65  41 S12       29.80F
BARKSDALE AFB  MOSUNNY   91  64  41 S8        29.81F
DTN SHREVEPORT SUNNY     90  64  42 VRB7      29.81F

$$

LAZ014-016-302200-
NORTHEAST LOUISIANA

CITY           SKY/WX    TMP DP  RH WIND       PRES   REMARKS
MONROE         SUNNY     90  64  42 CALM      29.83F
TALLULAH       MOSUNNY   89  62  40 S5        29.84F

$$




USA.gov is the U.S. government's official web portal to all federal, state and local government web resources and services.